STARLINK-35770, 66977

Orbit data source: Space-Track

STARLINK-35770, 66977 is a payload satellite owned by SpaceX/Seattle (US) in LEO that was launched on Mon, 08 Dec 2025 UTC via an FALCON 9 launch vehicle from the Air Force Eastern Test Range (AFETR). Payload-class satellites include a variety of spacecraft equipped with specific instruments for various scientific and technological missions. These include communications satellites like Starlink; space stations such as the ISS; scientific satellites like the Hubble; Earth observation satellites from companies like Planet Labs, Umbra, and HawkEye 360; GPS; miniature CubeSats for education and research; and military/defense satellites.

Loading next visibility...
Identifier
66977, 2025-288U
Orbit
LEO
Country
Flag of USUS
Related business
Manufacturer
SpaceX/Seattle
Mission
Operational Commercial Communications
Bus & Motor
STARLINK V2MO, Unknown motor
Mass
575 kg wet, ~530 kg dry
Launch date (UTC)
2025-12-08 (5 months ago)
Launch vehicle
FALCON 9
Launch site
Air Force Eastern Test Range (AFETR)
Object type
Payload
Rocket body
Debris
Shape & HBR
Box + 2 Pan, 17.7 m
Radar Cross Section
36.964 m²

Expand to show TLE details & history
Last TLE update: 12 hours ago

TLE from 12 hours ago
0 STARLINK-35770
1 66977U 25288U   26130.01355059  .00012713  00000-0  47067-3 0  9991
2 66977  43.0014  37.3428 0003034 270.3567  89.6937 15.27579580 24665
Epoch: 2026-05-10T00:19Z
TLE epoch observation values (Epoch: 2026-05-10T00:19:30.770Z)
Latitude
-0.00004°
Longitude
164.64182°
Altitude
482.815 km
Speed
7.626 km/s
True Right ascension
02h 29m 22s
True Declination
0° 00' 00"
Sunlit
Object was in daylight at epoch
Visualization orbit readout
Latitude
Unknown
Longitude
Unknown
Altitude
Unknown
Speed
Unknown
Apparent Right ascension
Unknown
Apparent Declination
Unknown
Sunlit
N/A
Visualization observer readout
Local Sidereal Time
20:35:58
Azimuth
Unknown
Elevation
Unknown
Doppler factor
Unknown
Orbital elements
Apogee altitude
487.078 km
Perigee altitude
482.913 km
Semi-major axis
6,863.132 km
Eccentricity
0.0003
Inclination
43.0014°
RAAN
37.3428°
Arg. of periapsis
270.3567°
True anomaly
89.72847°
Mean anomaly
89.6937°
Eccentric anomaly
89.71108°
Mean motion
3.81733 °/min
Orbital period
94.31 mins
BSTAR
0.00047067
Loading maneuver chart data...
Computing Atmospheric mass density...
Loading historical data...
Loading historical data...
Loading historical data...
Loading historical data...
Loading historical data...
Loading historical data...
Loading historical data...

Documentation

Showing up to 5 results
|